SCOUT A DEB, 2226

Orbit data source: Space-Track

SCOUT A DEB, 2226 is space debris in LEO originally from a launch on Wed, 22 Dec 1965 UTC launched from the Air Force Western Test Range (AFWTR). Debris objects in space refer to the collection of defunct objects orbiting the Earth. Examples of debris include non-operational satellites, rocket bodies, and fragments generated from explosions, collisions, or faulty payload assembly.

Loading next visibility...
Identifier
2226, 1965-109D
Orbit
LEO
Country
Flag of USUS
Related business
Manufacturer
Unknown
Mission
Spacecraft
Bus & Motor
Unknown
Mass
Unknown
Launch date (UTC)
1965-12-22 (61 years ago)
Launch vehicle
Unknown
Launch site
Air Force Western Test Range (AFWTR)
Object type
Payload
Rocket body
Debris
Shape & HBR
Unknown shape, 0.1 m
Radar Cross Section
Medium (>0.1 m² and <1 m²)

Expand to show TLE details & history
Last TLE update: 12 hours ago

TLE from 12 hours ago
0 SCOUT A DEB
1 02226U 65109D   26178.09967517  .00000004  00000-0 -10385-4 0  9997
2 02226  89.0548 305.8958 0247480  15.2008 345.6408 13.51283810955020
Epoch: 2026-06-27T02:23Z
TLE epoch observation values (Epoch: 2026-06-27T02:23:31.934Z)
Latitude
0.00002°
Longitude
-5.20595°
Altitude
892.24 km
Speed
7.494 km/s
True Right ascension
20h 23m 34s
True Declination
0° 00' 00"
Sunlit
Object was in full shadow at epoch
Visualization orbit readout
Latitude
Unknown
Longitude
Unknown
Altitude
Unknown
Speed
Unknown
Apparent Right ascension
Unknown
Apparent Declination
Unknown
Sunlit
N/A
Visualization observer readout
Local Sidereal Time
01:57:34
Azimuth
Unknown
Elevation
Unknown
Doppler factor
Unknown
Orbital elements
Apogee altitude
1,248.779 km
Perigee altitude
880.394 km
Semi-major axis
7,442.723 km
Eccentricity
0.02475
Inclination
89.0548°
RAAN
305.8958°
Arg. of periapsis
15.2008°
True anomaly
344.91581°
Mean anomaly
345.6408°
Eccentric anomaly
345.28052°
Mean motion
3.38022 °/min
Orbital period
106.5 mins
BSTAR
-0.000010385
Loading maneuver chart data...
Computing Atmospheric mass density...
Loading historical data...
Loading historical data...
Loading historical data...
Loading historical data...
Loading historical data...
Loading historical data...
Loading historical data...

Documentation

Showing up to 5 results
|